Time,TemperatureF,DewpointF,PressureIn,WindDirection,WindDirectionDegrees,WindSpeedMPH,WindSpeedGustMPH,Humidity,HourlyPrecipIn,Conditions,Clouds,dailyrainin,SoftwareType,DateUTC
2013-02-07 00:07:00,34.3,23.5,29.78,North,-999,-999.0,-999.0,64,-99.99,,,-99.99,meteohub,2013-02-07 00:07:00,
2013-02-07 00:12:00,34.3,23.5,29.78,North,-999,-999.0,-999.0,64,-99.99,,,-99.99,meteohub,2013-02-07 00:12:00,
2013-02-07 00:17:00,34.2,23.4,29.78,North,-999,-999.0,-999.0,64,-99.99,,,-99.99,meteohub,2013-02-07 00:17:00,
2013-02-07 00:22:00,34.3,23.5,29.78,North,-999,-999.0,-999.0,64,-99.99,,,-99.99,meteohub,2013-02-07 00:22:00,
2013-02-07 00:27:00,34.3,23.5,29.78,North,-999,-999.0,-999.0,64,-99.99,,,-99.99,meteohub,2013-02-07 00:27:00,
2013-02-07 00:32:00,34.3,23.0,29.78,North,-999,-999.0,-999.0,63,-99.99,,,-99.99,meteohub,2013-02-07 00:32:00,
2013-02-07 00:37:00,34.3,23.0,29.78,North,-999,-999.0,-999.0,63,-99.99,,,-99.99,meteohub,2013-02-07 00:37:00,
2013-02-07 00:42:00,34.3,23.0,29.78,North,-999,-999.0,-999.0,63,-99.99,,,-99.99,meteohub,2013-02-07 00:42:00,
2013-02-07 00:47:00,34.3,23.0,29.75,North,-999,-999.0,-999.0,63,-99.99,,,-99.99,meteohub,2013-02-07 00:47:00,
2013-02-07 00:52:00,34.3,23.0,29.75,North,-999,-999.0,-999.0,63,-99.99,,,-99.99,meteohub,2013-02-07 00:52:00,
2013-02-07 00:57:00,34.5,23.2,29.75,North,-999,-999.0,-999.0,63,-99.99,,,-99.99,meteohub,2013-02-07 00:57:00,
2013-02-07 01:02:00,34.5,23.2,29.75,North,-999,-999.0,-999.0,63,-99.99,,,-99.99,meteohub,2013-02-07 01:02:00,
2013-02-07 01:07:00,34.5,22.8,29.75,North,-999,-999.0,-999.0,62,-99.99,,,-99.99,meteohub,2013-02-07 01:07:00,
2013-02-07 01:12:00,34.3,22.6,29.75,North,-999,-999.0,-999.0,62,-99.99,,,-99.99,meteohub,2013-02-07 01:12:00,
2013-02-07 01:17:00,34.3,23.0,29.78,North,-999,-999.0,-999.0,63,-99.99,,,-99.99,meteohub,2013-02-07 01:17:00,
2013-02-07 01:22:00,34.3,23.0,29.78,North,-999,-999.0,-999.0,63,-99.99,,,-99.99,meteohub,2013-02-07 01:22:00,
2013-02-07 01:27:00,34.2,23.0,29.78,North,-999,-999.0,-999.0,63,-99.99,,,-99.99,meteohub,2013-02-07 01:27:00,
2013-02-07 01:32:00,34.2,23.0,29.78,North,-999,-999.0,-999.0,63,-99.99,,,-99.99,meteohub,2013-02-07 01:32:00,
2013-02-07 01:37:00,34.2,23.0,29.78,North,-999,-999.0,-999.0,63,-99.99,,,-99.99,meteohub,2013-02-07 01:37:00,
2013-02-07 01:42:00,34.2,23.0,29.78,North,-999,-999.0,-999.0,63,-99.99,,,-99.99,meteohub,2013-02-07 01:42:00,
2013-02-07 01:47:00,34.2,23.0,29.78,North,-999,-999.0,-999.0,63,-99.99,,,-99.99,meteohub,2013-02-07 01:47:00,
2013-02-07 01:52:00,34.0,22.8,29.78,North,-999,-999.0,-999.0,63,-99.99,,,-99.99,meteohub,2013-02-07 01:52:00,
2013-02-07 01:57:00,34.0,22.8,29.78,North,-999,-999.0,-999.0,63,-99.99,,,-99.99,meteohub,2013-02-07 01:57:00,
2013-02-07 02:02:00,34.0,23.2,29.78,North,-999,-999.0,-999.0,64,-99.99,,,-99.99,meteohub,2013-02-07 02:02:00,
2013-02-07 02:07:00,34.0,23.2,29.78,North,-999,-999.0,-999.0,64,-99.99,,,-99.99,meteohub,2013-02-07 02:07:00,
2013-02-07 02:12:00,34.0,23.2,29.78,North,-999,-999.0,-999.0,64,-99.99,,,-99.99,meteohub,2013-02-07 02:12:00,
2013-02-07 02:17:00,34.0,23.2,29.78,North,-999,-999.0,-999.0,64,-99.99,,,-99.99,meteohub,2013-02-07 02:17:00,
2013-02-07 02:22:00,34.0,23.2,29.78,North,-999,-999.0,-999.0,64,-99.99,,,-99.99,meteohub,2013-02-07 02:22:00,
2013-02-07 02:27:00,34.0,23.2,29.78,North,-999,-999.0,-999.0,64,-99.99,,,-99.99,meteohub,2013-02-07 02:27:00,
2013-02-07 02:32:00,34.0,23.2,29.78,North,-999,-999.0,-999.0,64,-99.99,,,-99.99,meteohub,2013-02-07 02:32:00,
2013-02-07 02:37:00,34.0,22.8,29.78,North,-999,-999.0,-999.0,63,-99.99,,,-99.99,meteohub,2013-02-07 02:37:00,
2013-02-07 02:42:00,34.0,22.8,29.78,North,-999,-999.0,-999.0,63,-99.99,,,-99.99,meteohub,2013-02-07 02:42:00,
2013-02-07 02:47:00,34.0,22.8,29.78,North,-999,-999.0,-999.0,63,-99.99,,,-99.99,meteohub,2013-02-07 02:47:00,
2013-02-07 02:52:00,34.2,23.0,29.78,North,-999,-999.0,-999.0,63,-99.99,,,-99.99,meteohub,2013-02-07 02:52:00,
2013-02-07 02:57:00,34.2,22.5,29.78,North,-999,-999.0,-999.0,62,-99.99,,,-99.99,meteohub,2013-02-07 02:57:00,
2013-02-07 03:02:00,34.0,22.3,29.78,North,-999,-999.0,-999.0,62,-99.99,,,-99.99,meteohub,2013-02-07 03:02:00,
2013-02-07 03:07:00,34.0,22.3,29.78,North,-999,-999.0,-999.0,62,-99.99,,,-99.99,meteohub,2013-02-07 03:07:00,
2013-02-07 03:12:00,34.2,22.5,29.78,North,-999,-999.0,-999.0,62,-99.99,,,-99.99,meteohub,2013-02-07 03:12:00,
2013-02-07 03:17:00,34.0,22.3,29.78,North,-999,-999.0,-999.0,62,-99.99,,,-99.99,meteohub,2013-02-07 03:17:00,
2013-02-07 03:22:00,34.2,22.1,29.78,North,-999,-999.0,-999.0,61,-99.99,,,-99.99,meteohub,2013-02-07 03:22:00,
2013-02-07 03:27:00,34.2,22.1,29.78,North,-999,-999.0,-999.0,61,-99.99,,,-99.99,meteohub,2013-02-07 03:27:00,
2013-02-07 03:32:00,34.2,22.1,29.78,North,-999,-999.0,-999.0,61,-99.99,,,-99.99,meteohub,2013-02-07 03:32:00,
2013-02-07 03:37:00,34.0,21.9,29.78,North,-999,-999.0,-999.0,61,-99.99,,,-99.99,meteohub,2013-02-07 03:37:00,
2013-02-07 03:42:00,34.0,21.9,29.78,North,-999,-999.0,-999.0,61,-99.99,,,-99.99,meteohub,2013-02-07 03:42:00,
2013-02-07 03:47:00,34.0,21.9,29.78,North,-999,-999.0,-999.0,61,-99.99,,,-99.99,meteohub,2013-02-07 03:47:00,
2013-02-07 03:52:00,34.2,22.1,29.78,North,-999,-999.0,-999.0,61,-99.99,,,-99.99,meteohub,2013-02-07 03:52:00,
2013-02-07 03:57:00,33.8,21.7,29.78,North,-999,-999.0,-999.0,61,-99.99,,,-99.99,meteohub,2013-02-07 03:57:00,
2013-02-07 04:02:00,33.8,21.7,29.78,North,-999,-999.0,-999.0,61,-99.99,,,-99.99,meteohub,2013-02-07 04:02:00,
2013-02-07 04:07:00,33.8,21.7,29.78,North,-999,-999.0,-999.0,61,-99.99,,,-99.99,meteohub,2013-02-07 04:07:00,
2013-02-07 04:12:00,33.8,21.7,29.78,North,-999,-999.0,-999.0,61,-99.99,,,-99.99,meteohub,2013-02-07 04:12:00,
2013-02-07 04:17:00,33.8,21.7,29.78,North,-999,-999.0,-999.0,61,-99.99,,,-99.99,meteohub,2013-02-07 04:17:00,
2013-02-07 04:22:00,33.8,21.7,29.78,North,-999,-999.0,-999.0,61,-99.99,,,-99.99,meteohub,2013-02-07 04:22:00,
2013-02-07 04:27:00,33.8,21.7,29.78,North,-999,-999.0,-999.0,61,-99.99,,,-99.99,meteohub,2013-02-07 04:27:00,
2013-02-07 04:32:00,33.8,21.7,29.78,North,-999,-999.0,-999.0,61,-99.99,,,-99.99,meteohub,2013-02-07 04:32:00,
2013-02-07 04:37:00,33.8,21.7,29.78,North,-999,-999.0,-999.0,61,-99.99,,,-99.99,meteohub,2013-02-07 04:37:00,
2013-02-07 04:42:00,33.8,21.7,29.78,North,-999,-999.0,-999.0,61,-99.99,,,-99.99,meteohub,2013-02-07 04:42:00,
2013-02-07 04:47:00,33.8,21.7,29.78,North,-999,-999.0,-999.0,61,-99.99,,,-99.99,meteohub,2013-02-07 04:47:00,
2013-02-07 04:52:00,33.8,21.7,29.78,North,-999,-999.0,-999.0,61,-99.99,,,-99.99,meteohub,2013-02-07 04:52:00,
2013-02-07 04:57:00,34.0,21.6,29.78,North,-999,-999.0,-999.0,60,-99.99,,,-99.99,meteohub,2013-02-07 04:57:00,
2013-02-07 05:02:00,34.0,21.6,29.78,North,-999,-999.0,-999.0,60,-99.99,,,-99.99,meteohub,2013-02-07 05:02:00,
2013-02-07 05:07:00,33.8,21.4,29.78,North,-999,-999.0,-999.0,60,-99.99,,,-99.99,meteohub,2013-02-07 05:07:00,
2013-02-07 05:12:00,33.6,21.6,29.78,North,-999,-999.0,-999.0,61,-99.99,,,-99.99,meteohub,2013-02-07 05:12:00,
2013-02-07 05:17:00,33.6,21.6,29.78,North,-999,-999.0,-999.0,61,-99.99,,,-99.99,meteohub,2013-02-07 05:17:00,
2013-02-07 05:22:00,33.4,21.6,29.78,North,-999,-999.0,-999.0,61,-99.99,,,-99.99,meteohub,2013-02-07 05:22:00,
2013-02-07 05:27:00,33.1,21.2,29.78,North,-999,-999.0,-999.0,61,-99.99,,,-99.99,meteohub,2013-02-07 05:27:00,
2013-02-07 05:32:00,33.1,21.2,29.78,North,-999,-999.0,-999.0,61,-99.99,,,-99.99,meteohub,2013-02-07 05:32:00,
2013-02-07 05:37:00,33.1,21.6,29.78,North,-999,-999.0,-999.0,62,-99.99,,,-99.99,meteohub,2013-02-07 05:37:00,
2013-02-07 05:42:00,33.1,21.6,29.78,North,-999,-999.0,-999.0,62,-99.99,,,-99.99,meteohub,2013-02-07 05:42:00,
2013-02-07 05:47:00,33.3,22.1,29.78,North,-999,-999.0,-999.0,63,-99.99,,,-99.99,meteohub,2013-02-07 05:47:00,
2013-02-07 05:57:00,33.3,22.1,29.78,North,-999,-999.0,-999.0,63,-99.99,,,-99.99,meteohub,2013-02-07 05:57:00,
2013-02-07 06:02:00,33.3,22.1,29.78,North,-999,-999.0,-999.0,63,-99.99,,,-99.99,meteohub,2013-02-07 06:02:00,
2013-02-07 06:07:00,33.3,22.1,29.78,North,-999,-999.0,-999.0,63,-99.99,,,-99.99,meteohub,2013-02-07 06:07:00,
2013-02-07 06:12:00,33.3,22.1,29.78,North,-999,-999.0,-999.0,63,-99.99,,,-99.99,meteohub,2013-02-07 06:12:00,
2013-02-07 06:17:00,33.3,22.1,29.78,North,-999,-999.0,-999.0,63,-99.99,,,-99.99,meteohub,2013-02-07 06:17:00,
2013-02-07 06:22:00,33.1,21.9,29.78,North,-999,-999.0,-999.0,63,-99.99,,,-99.99,meteohub,2013-02-07 06:22:00,
2013-02-07 06:27:00,33.1,22.3,29.78,North,-999,-999.0,-999.0,64,-99.99,,,-99.99,meteohub,2013-02-07 06:27:00,
2013-02-07 06:37:00,33.1,23.0,29.78,North,-999,-999.0,-999.0,66,-99.99,,,-99.99,meteohub,2013-02-07 06:37:00,
2013-02-07 06:42:00,33.1,23.0,29.78,North,-999,-999.0,-999.0,66,-99.99,,,-99.99,meteohub,2013-02-07 06:42:00,
2013-02-07 06:47:00,32.9,23.2,29.78,North,-999,-999.0,-999.0,67,-99.99,,,-99.99,meteohub,2013-02-07 06:47:00,
2013-02-07 06:52:00,32.9,23.2,29.78,North,-999,-999.0,-999.0,67,-99.99,,,-99.99,meteohub,2013-02-07 06:52:00,
2013-02-07 06:57:00,32.7,23.4,29.78,North,-999,-999.0,-999.0,68,-99.99,,,-99.99,meteohub,2013-02-07 06:57:00,
2013-02-07 07:02:00,32.7,23.7,29.78,North,-999,-999.0,-999.0,69,-99.99,,,-99.99,meteohub,2013-02-07 07:02:00,
2013-02-07 07:07:00,32.7,23.7,29.78,North,-999,-999.0,-999.0,69,-99.99,,,-99.99,meteohub,2013-02-07 07:07:00,
2013-02-07 07:12:00,32.5,23.5,29.78,North,-999,-999.0,-999.0,69,-99.99,,,-99.99,meteohub,2013-02-07 07:12:00,
2013-02-07 07:17:00,32.5,23.9,29.81,North,-999,-999.0,-999.0,70,-99.99,,,-99.99,meteohub,2013-02-07 07:17:00,
2013-02-07 07:22:00,32.4,23.7,29.81,North,-999,-999.0,-999.0,70,-99.99,,,-99.99,meteohub,2013-02-07 07:22:00,
2013-02-07 07:27:00,32.4,24.1,29.81,North,-999,-999.0,-999.0,71,-99.99,,,-99.99,meteohub,2013-02-07 07:27:00,
2013-02-07 07:32:00,32.5,24.6,29.81,North,-999,-999.0,-999.0,72,-99.99,,,-99.99,meteohub,2013-02-07 07:32:00,
2013-02-07 07:37:00,32.5,24.6,29.81,North,-999,-999.0,-999.0,72,-99.99,,,-99.99,meteohub,2013-02-07 07:37:00,
2013-02-07 07:42:00,32.5,24.8,29.81,North,-999,-999.0,-999.0,73,-99.99,,,-99.99,meteohub,2013-02-07 07:42:00,
2013-02-07 07:47:00,32.4,24.6,29.78,North,-999,-999.0,-999.0,73,-99.99,,,-99.99,meteohub,2013-02-07 07:47:00,
2013-02-07 07:52:00,32.5,25.2,29.78,North,-999,-999.0,-999.0,74,-99.99,,,-99.99,meteohub,2013-02-07 07:52:00,
2013-02-07 07:57:00,32.5,25.2,29.78,North,-999,-999.0,-999.0,74,-99.99,,,-99.99,meteohub,2013-02-07 07:57:00,
2013-02-07 08:02:00,32.7,25.3,29.81,North,-999,-999.0,-999.0,74,-99.99,,,-99.99,meteohub,2013-02-07 08:02:00,
2013-02-07 08:07:00,33.1,25.7,29.81,North,-999,-999.0,-999.0,74,-99.99,,,-99.99,meteohub,2013-02-07 08:07:00,
2013-02-07 08:12:00,33.1,25.7,29.81,North,-999,-999.0,-999.0,74,-99.99,,,-99.99,meteohub,2013-02-07 08:12:00,
2013-02-07 08:17:00,32.9,25.2,29.81,North,-999,-999.0,-999.0,73,-99.99,,,-99.99,meteohub,2013-02-07 08:17:00,
2013-02-07 08:22:00,33.1,25.3,29.81,North,-999,-999.0,-999.0,73,-99.99,,,-99.99,meteohub,2013-02-07 08:22:00,
2013-02-07 08:27:00,33.3,25.5,29.81,North,-999,-999.0,-999.0,73,-99.99,,,-99.99,meteohub,2013-02-07 08:27:00,
2013-02-07 08:32:00,33.3,25.5,29.81,North,-999,-999.0,-999.0,73,-99.99,,,-99.99,meteohub,2013-02-07 08:32:00,
2013-02-07 08:37:00,33.4,25.3,29.81,North,-999,-999.0,-999.0,72,-99.99,,,-99.99,meteohub,2013-02-07 08:37:00,
2013-02-07 08:42:00,33.6,25.5,29.81,North,-999,-999.0,-999.0,72,-99.99,,,-99.99,meteohub,2013-02-07 08:42:00,
2013-02-07 08:47:00,34.0,25.5,29.81,North,-999,-999.0,-999.0,71,-99.99,,,-99.99,meteohub,2013-02-07 08:47:00,
2013-02-07 08:52:00,34.2,25.3,29.81,North,-999,-999.0,-999.0,70,-99.99,,,-99.99,meteohub,2013-02-07 08:52:00,
2013-02-07 08:57:00,34.3,25.5,29.81,North,-999,-999.0,-999.0,70,-99.99,,,-99.99,meteohub,2013-02-07 08:57:00,
2013-02-07 09:02:00,34.9,25.3,29.81,North,-999,-999.0,-999.0,68,-99.99,,,-99.99,meteohub,2013-02-07 09:02:00,
2013-02-07 09:07:00,35.1,25.2,29.81,North,-999,-999.0,-999.0,67,-99.99,,,-99.99,meteohub,2013-02-07 09:07:00,
2013-02-07 09:12:00,35.1,25.2,29.81,North,-999,-999.0,-999.0,67,-99.99,,,-99.99,meteohub,2013-02-07 09:12:00,
2013-02-07 09:17:00,35.4,25.5,29.81,North,-999,-999.0,-999.0,67,-99.99,,,-99.99,meteohub,2013-02-07 09:17:00,
2013-02-07 09:22:00,35.8,25.2,29.81,North,-999,-999.0,-999.0,65,-99.99,,,-99.99,meteohub,2013-02-07 09:22:00,
2013-02-07 09:27:00,36.7,26.1,29.81,North,-999,-999.0,-999.0,65,-99.99,,,-99.99,meteohub,2013-02-07 09:27:00,
2013-02-07 09:32:00,37.0,25.7,29.81,North,-999,-999.0,-999.0,63,-99.99,,,-99.99,meteohub,2013-02-07 09:32:00,
2013-02-07 09:37:00,37.0,24.8,29.81,North,-999,-999.0,-999.0,61,-99.99,,,-99.99,meteohub,2013-02-07 09:37:00,
2013-02-07 09:42:00,37.4,25.2,29.81,North,-999,-999.0,-999.0,61,-99.99,,,-99.99,meteohub,2013-02-07 09:42:00,
2013-02-07 09:47:00,38.1,24.3,29.81,North,-999,-999.0,-999.0,57,-99.99,,,-99.99,meteohub,2013-02-07 09:47:00,
2013-02-07 09:52:00,38.3,24.4,29.81,North,-999,-999.0,-999.0,57,-99.99,,,-99.99,meteohub,2013-02-07 09:52:00,
2013-02-07 09:57:00,38.5,24.3,29.81,North,-999,-999.0,-999.0,56,-99.99,,,-99.99,meteohub,2013-02-07 09:57:00,
2013-02-07 10:02:00,39.7,24.1,29.81,North,-999,-999.0,-999.0,53,-99.99,,,-99.99,meteohub,2013-02-07 10:02:00,
2013-02-07 10:07:00,40.5,24.3,29.81,North,-999,-999.0,-999.0,52,-99.99,,,-99.99,meteohub,2013-02-07 10:07:00,
2013-02-07 10:12:00,41.4,25.2,29.81,North,-999,-999.0,-999.0,52,-99.99,,,-99.99,meteohub,2013-02-07 10:12:00,
2013-02-07 10:17:00,42.1,25.3,29.81,North,-999,-999.0,-999.0,51,-99.99,,,-99.99,meteohub,2013-02-07 10:17:00,
2013-02-07 10:22:00,42.8,24.4,29.81,North,-999,-999.0,-999.0,48,-99.99,,,-99.99,meteohub,2013-02-07 10:22:00,
2013-02-07 10:27:00,43.9,26.1,29.81,North,-999,-999.0,-999.0,49,-99.99,,,-99.99,meteohub,2013-02-07 10:27:00,
2013-02-07 10:32:00,44.4,26.1,29.81,North,-999,-999.0,-999.0,48,-99.99,,,-99.99,meteohub,2013-02-07 10:32:00,
2013-02-07 10:37:00,44.6,25.2,29.81,North,-999,-999.0,-999.0,46,-99.99,,,-99.99,meteohub,2013-02-07 10:37:00,
2013-02-07 10:42:00,44.8,24.3,29.81,North,-999,-999.0,-999.0,44,-99.99,,,-99.99,meteohub,2013-02-07 10:42:00,
2013-02-07 10:47:00,44.1,23.0,29.81,North,-999,-999.0,-999.0,43,-99.99,,,-99.99,meteohub,2013-02-07 10:47:00,
2013-02-07 10:52:00,44.1,23.5,29.81,North,-999,-999.0,-999.0,44,-99.99,,,-99.99,meteohub,2013-02-07 10:52:00,
2013-02-07 10:57:00,45.0,24.4,29.81,North,-999,-999.0,-999.0,44,-99.99,,,-99.99,meteohub,2013-02-07 10:57:00,
2013-02-07 11:02:00,45.7,24.4,29.81,North,-999,-999.0,-999.0,43,-99.99,,,-99.99,meteohub,2013-02-07 11:02:00,
2013-02-07 11:07:00,45.9,24.6,29.81,North,-999,-999.0,-999.0,43,-99.99,,,-99.99,meteohub,2013-02-07 11:07:00,
2013-02-07 11:12:00,46.4,24.6,29.81,North,-999,-999.0,-999.0,42,-99.99,,,-99.99,meteohub,2013-02-07 11:12:00,
2013-02-07 11:17:00,46.8,25.0,29.81,North,-999,-999.0,-999.0,42,-99.99,,,-99.99,meteohub,2013-02-07 11:17:00,
2013-02-07 11:22:00,46.8,24.4,29.81,North,-999,-999.0,-999.0,41,-99.99,,,-99.99,meteohub,2013-02-07 11:22:00,
2013-02-07 11:27:00,46.8,25.0,29.81,North,-999,-999.0,-999.0,42,-99.99,,,-99.99,meteohub,2013-02-07 11:27:00,
2013-02-07 11:32:00,46.9,25.2,29.78,North,-999,-999.0,-999.0,42,-99.99,,,-99.99,meteohub,2013-02-07 11:32:00,
2013-02-07 11:37:00,46.2,25.0,29.78,North,-999,-999.0,-999.0,43,-99.99,,,-99.99,meteohub,2013-02-07 11:37:00,
2013-02-07 11:42:00,45.3,24.3,29.78,North,-999,-999.0,-999.0,43,-99.99,,,-99.99,meteohub,2013-02-07 11:42:00,
2013-02-07 11:47:00,44.8,23.2,29.78,North,-999,-999.0,-999.0,42,-99.99,,,-99.99,meteohub,2013-02-07 11:47:00,
2013-02-07 11:52:00,44.4,23.4,29.78,North,-999,-999.0,-999.0,43,-99.99,,,-99.99,meteohub,2013-02-07 11:52:00,
2013-02-07 11:57:00,44.1,23.0,29.78,North,-999,-999.0,-999.0,43,-99.99,,,-99.99,meteohub,2013-02-07 11:57:00,
2013-02-07 12:02:00,43.3,23.0,29.78,North,-999,-999.0,-999.0,44,-99.99,,,-99.99,meteohub,2013-02-07 12:02:00,
2013-02-07 12:07:00,43.0,23.2,29.78,North,-999,-999.0,-999.0,45,-99.99,,,-99.99,meteohub,2013-02-07 12:07:00,
2013-02-07 12:12:00,43.5,24.1,29.78,North,-999,-999.0,-999.0,46,-99.99,,,-99.99,meteohub,2013-02-07 12:12:00,
2013-02-07 12:17:00,44.4,25.0,29.78,North,-999,-999.0,-999.0,46,-99.99,,,-99.99,meteohub,2013-02-07 12:17:00,
2013-02-07 12:22:00,44.8,25.3,29.78,North,-999,-999.0,-999.0,46,-99.99,,,-99.99,meteohub,2013-02-07 12:22:00,
2013-02-07 12:27:00,46.0,26.4,29.78,North,-999,-999.0,-999.0,46,-99.99,,,-99.99,meteohub,2013-02-07 12:27:00,
2013-02-07 12:32:00,46.2,25.5,29.75,North,-999,-999.0,-999.0,44,-99.99,,,-99.99,meteohub,2013-02-07 12:32:00,
2013-02-07 12:37:00,45.5,24.4,29.75,North,-999,-999.0,-999.0,43,-99.99,,,-99.99,meteohub,2013-02-07 12:37:00,
2013-02-07 12:42:00,45.3,24.8,29.75,North,-999,-999.0,-999.0,44,-99.99,,,-99.99,meteohub,2013-02-07 12:42:00,
2013-02-07 12:47:00,44.4,23.9,29.75,North,-999,-999.0,-999.0,44,-99.99,,,-99.99,meteohub,2013-02-07 12:47:00,
2013-02-07 12:52:00,43.7,23.7,29.75,North,-999,-999.0,-999.0,45,-99.99,,,-99.99,meteohub,2013-02-07 12:52:00,
2013-02-07 12:57:00,43.7,24.3,29.75,North,-999,-999.0,-999.0,46,-99.99,,,-99.99,meteohub,2013-02-07 12:57:00,
2013-02-07 13:02:00,43.9,25.0,29.75,North,-999,-999.0,-999.0,47,-99.99,,,-99.99,meteohub,2013-02-07 13:02:00,
2013-02-07 13:07:00,43.3,25.0,29.75,North,-999,-999.0,-999.0,48,-99.99,,,-99.99,meteohub,2013-02-07 13:07:00,
2013-02-07 13:12:00,43.0,24.6,29.75,North,-999,-999.0,-999.0,48,-99.99,,,-99.99,meteohub,2013-02-07 13:12:00,
2013-02-07 13:17:00,42.8,24.4,29.75,North,-999,-999.0,-999.0,48,-99.99,,,-99.99,meteohub,2013-02-07 13:17:00,
2013-02-07 13:22:00,42.8,25.0,29.75,North,-999,-999.0,-999.0,49,-99.99,,,-99.99,meteohub,2013-02-07 13:22:00,
2013-02-07 13:27:00,42.4,25.2,29.75,North,-999,-999.0,-999.0,50,-99.99,,,-99.99,meteohub,2013-02-07 13:27:00,
2013-02-07 13:32:00,42.4,25.2,29.75,North,-999,-999.0,-999.0,50,-99.99,,,-99.99,meteohub,2013-02-07 13:32:00,
2013-02-07 13:37:00,42.3,25.0,29.75,North,-999,-999.0,-999.0,50,-99.99,,,-99.99,meteohub,2013-02-07 13:37:00,
2013-02-07 13:42:00,42.3,25.5,29.75,North,-999,-999.0,-999.0,51,-99.99,,,-99.99,meteohub,2013-02-07 13:42:00,
2013-02-07 13:47:00,42.1,24.8,29.75,North,-999,-999.0,-999.0,50,-99.99,,,-99.99,meteohub,2013-02-07 13:47:00,
2013-02-07 13:52:00,42.1,24.8,29.75,North,-999,-999.0,-999.0,50,-99.99,,,-99.99,meteohub,2013-02-07 13:52:00,
2013-02-07 13:57:00,41.5,23.9,29.75,North,-999,-999.0,-999.0,49,-99.99,,,-99.99,meteohub,2013-02-07 13:57:00,
2013-02-07 14:02:00,41.5,24.8,29.75,North,-999,-999.0,-999.0,51,-99.99,,,-99.99,meteohub,2013-02-07 14:02:00,
2013-02-07 14:07:00,41.4,24.6,29.75,North,-999,-999.0,-999.0,51,-99.99,,,-99.99,meteohub,2013-02-07 14:07:00,
2013-02-07 14:12:00,41.2,25.0,29.75,North,-999,-999.0,-999.0,52,-99.99,,,-99.99,meteohub,2013-02-07 14:12:00,
2013-02-07 14:17:00,41.0,25.2,29.72,North,-999,-999.0,-999.0,53,-99.99,,,-99.99,meteohub,2013-02-07 14:17:00,
2013-02-07 14:22:00,41.2,25.3,29.72,North,-999,-999.0,-999.0,53,-99.99,,,-99.99,meteohub,2013-02-07 14:22:00,
2013-02-07 14:27:00,41.0,25.2,29.72,North,-999,-999.0,-999.0,53,-99.99,,,-99.99,meteohub,2013-02-07 14:27:00,
2013-02-07 14:32:00,41.0,25.2,29.72,North,-999,-999.0,-999.0,53,-99.99,,,-99.99,meteohub,2013-02-07 14:32:00,
2013-02-07 14:37:00,40.8,25.5,29.72,North,-999,-999.0,-999.0,54,-99.99,,,-99.99,meteohub,2013-02-07 14:37:00,
2013-02-07 14:42:00,40.6,25.3,29.72,North,-999,-999.0,-999.0,54,-99.99,,,-99.99,meteohub,2013-02-07 14:42:00,
2013-02-07 14:47:00,40.6,25.3,29.72,North,-999,-999.0,-999.0,54,-99.99,,,-99.99,meteohub,2013-02-07 14:47:00,
2013-02-07 14:52:00,40.6,25.7,29.72,North,-999,-999.0,-999.0,55,-99.99,,,-99.99,meteohub,2013-02-07 14:52:00,
2013-02-07 14:57:00,40.6,25.7,29.72,North,-999,-999.0,-999.0,55,-99.99,,,-99.99,meteohub,2013-02-07 14:57:00,
2013-02-07 15:02:00,40.6,25.7,29.72,North,-999,-999.0,-999.0,55,-99.99,,,-99.99,meteohub,2013-02-07 15:02:00,
2013-02-07 15:07:00,40.5,25.5,29.72,North,-999,-999.0,-999.0,55,-99.99,,,-99.99,meteohub,2013-02-07 15:07:00,
2013-02-07 15:12:00,40.5,25.5,29.72,North,-999,-999.0,-999.0,55,-99.99,,,-99.99,meteohub,2013-02-07 15:12:00,
2013-02-07 15:17:00,40.3,25.5,29.72,North,-999,-999.0,-999.0,55,-99.99,,,-99.99,meteohub,2013-02-07 15:17:00,
2013-02-07 15:22:00,40.3,25.5,29.72,North,-999,-999.0,-999.0,55,-99.99,,,-99.99,meteohub,2013-02-07 15:22:00,
2013-02-07 15:32:00,40.1,25.7,29.72,North,-999,-999.0,-999.0,56,-99.99,,,-99.99,meteohub,2013-02-07 15:32:00,
2013-02-07 15:37:00,39.9,25.5,29.72,North,-999,-999.0,-999.0,56,-99.99,,,-99.99,meteohub,2013-02-07 15:37:00,
2013-02-07 15:42:00,39.9,25.5,29.72,North,-999,-999.0,-999.0,56,-99.99,,,-99.99,meteohub,2013-02-07 15:42:00,
2013-02-07 15:47:00,39.7,25.9,29.72,North,-999,-999.0,-999.0,57,-99.99,,,-99.99,meteohub,2013-02-07 15:47:00,
2013-02-07 15:52:00,39.7,25.9,29.72,North,-999,-999.0,-999.0,57,-99.99,,,-99.99,meteohub,2013-02-07 15:52:00,
2013-02-07 15:57:00,39.7,25.9,29.72,North,-999,-999.0,-999.0,57,-99.99,,,-99.99,meteohub,2013-02-07 15:57:00,
2013-02-07 16:02:00,39.7,25.9,29.72,North,-999,-999.0,-999.0,57,-99.99,,,-99.99,meteohub,2013-02-07 16:02:00,
2013-02-07 16:07:00,39.6,26.1,29.72,North,-999,-999.0,-999.0,58,-99.99,,,-99.99,meteohub,2013-02-07 16:07:00,
2013-02-07 16:12:00,39.6,26.4,29.72,North,-999,-999.0,-999.0,59,-99.99,,,-99.99,meteohub,2013-02-07 16:12:00,
2013-02-07 16:17:00,39.4,26.2,29.72,North,-999,-999.0,-999.0,59,-99.99,,,-99.99,meteohub,2013-02-07 16:17:00,
2013-02-07 16:22:00,39.4,26.6,29.72,North,-999,-999.0,-999.0,60,-99.99,,,-99.99,meteohub,2013-02-07 16:22:00,
2013-02-07 16:27:00,39.2,26.6,29.72,North,-999,-999.0,-999.0,60,-99.99,,,-99.99,meteohub,2013-02-07 16:27:00,
2013-02-07 16:32:00,39.2,27.0,29.69,North,-999,-999.0,-999.0,61,-99.99,,,-99.99,meteohub,2013-02-07 16:32:00,
2013-02-07 16:37:00,39.2,27.3,29.69,North,-999,-999.0,-999.0,62,-99.99,,,-99.99,meteohub,2013-02-07 16:37:00,
2013-02-07 16:42:00,39.0,27.9,29.69,North,-999,-999.0,-999.0,64,-99.99,,,-99.99,meteohub,2013-02-07 16:42:00,
2013-02-07 16:47:00,38.8,28.0,29.69,North,-999,-999.0,-999.0,65,-99.99,,,-99.99,meteohub,2013-02-07 16:47:00,
2013-02-07 16:52:00,38.7,27.9,29.69,North,-999,-999.0,-999.0,65,-99.99,,,-99.99,meteohub,2013-02-07 16:52:00,
2013-02-07 16:57:00,38.5,27.9,29.69,North,-999,-999.0,-999.0,65,-99.99,,,-99.99,meteohub,2013-02-07 16:57:00,
2013-02-07 17:02:00,38.5,28.2,29.69,North,-999,-999.0,-999.0,66,-99.99,,,-99.99,meteohub,2013-02-07 17:02:00,
2013-02-07 17:07:00,38.3,28.0,29.69,North,-999,-999.0,-999.0,66,-99.99,,,-99.99,meteohub,2013-02-07 17:07:00,
2013-02-07 17:12:00,38.3,28.0,29.69,North,-999,-999.0,-999.0,66,-99.99,,,-99.99,meteohub,2013-02-07 17:12:00,
2013-02-07 17:17:00,38.3,28.0,29.69,North,-999,-999.0,-999.0,66,-99.99,,,-99.99,meteohub,2013-02-07 17:17:00,
2013-02-07 17:22:00,38.3,28.4,29.69,North,-999,-999.0,-999.0,67,-99.99,,,-99.99,meteohub,2013-02-07 17:22:00,
2013-02-07 17:27:00,38.3,28.4,29.69,North,-999,-999.0,-999.0,67,-99.99,,,-99.99,meteohub,2013-02-07 17:27:00,
2013-02-07 17:32:00,38.3,29.1,29.72,North,-999,-999.0,-999.0,69,-99.99,,,-99.99,meteohub,2013-02-07 17:32:00,
2013-02-07 17:37:00,38.3,29.7,29.72,North,-999,-999.0,-999.0,71,-99.99,,,-99.99,meteohub,2013-02-07 17:37:00,
2013-02-07 17:42:00,38.1,29.8,29.72,North,-999,-999.0,-999.0,72,-99.99,,,-99.99,meteohub,2013-02-07 17:42:00,
2013-02-07 17:47:00,37.9,29.7,29.72,North,-999,-999.0,-999.0,72,-99.99,,,-99.99,meteohub,2013-02-07 17:47:00,
2013-02-07 17:52:00,37.9,29.7,29.72,North,-999,-999.0,-999.0,72,-99.99,,,-99.99,meteohub,2013-02-07 17:52:00,
2013-02-07 17:57:00,37.8,30.2,29.72,North,-999,-999.0,-999.0,74,-99.99,,,-99.99,meteohub,2013-02-07 17:57:00,
2013-02-07 18:02:00,37.8,30.6,29.72,North,-999,-999.0,-999.0,75,-99.99,,,-99.99,meteohub,2013-02-07 18:02:00,
2013-02-07 18:07:00,37.6,30.7,29.72,North,-999,-999.0,-999.0,76,-99.99,,,-99.99,meteohub,2013-02-07 18:07:00,
2013-02-07 18:12:00,37.4,30.6,29.72,North,-999,-999.0,-999.0,76,-99.99,,,-99.99,meteohub,2013-02-07 18:12:00,
2013-02-07 18:17:00,37.4,30.6,29.72,North,-999,-999.0,-999.0,76,-99.99,,,-99.99,meteohub,2013-02-07 18:17:00,
2013-02-07 18:27:00,37.2,30.7,29.72,North,-999,-999.0,-999.0,77,-99.99,,,-99.99,meteohub,2013-02-07 18:27:00,
2013-02-07 18:32:00,37.2,30.7,29.69,North,-999,-999.0,-999.0,77,-99.99,,,-99.99,meteohub,2013-02-07 18:32:00,
2013-02-07 18:42:00,37.0,31.1,29.69,North,-999,-999.0,-999.0,79,-99.99,,,-99.99,meteohub,2013-02-07 18:42:00,
2013-02-07 18:47:00,37.0,31.1,29.69,North,-999,-999.0,-999.0,79,-99.99,,,-99.99,meteohub,2013-02-07 18:47:00,
2013-02-07 18:52:00,37.0,31.5,29.69,North,-999,-999.0,-999.0,80,-99.99,,,-99.99,meteohub,2013-02-07 18:52:00,
2013-02-07 18:57:00,37.0,31.8,29.69,North,-999,-999.0,-999.0,81,-99.99,,,-99.99,meteohub,2013-02-07 18:57:00,
2013-02-07 19:02:00,37.0,32.0,29.69,North,-999,-999.0,-999.0,82,-99.99,,,-99.99,meteohub,2013-02-07 19:02:00,
2013-02-07 19:07:00,37.0,32.0,29.69,North,-999,-999.0,-999.0,82,-99.99,,,-99.99,meteohub,2013-02-07 19:07:00,
2013-02-07 19:12:00,37.0,32.4,29.69,North,-999,-999.0,-999.0,83,-99.99,,,-99.99,meteohub,2013-02-07 19:12:00,
2013-02-07 19:17:00,37.0,32.7,29.69,North,-999,-999.0,-999.0,84,-99.99,,,-99.99,meteohub,2013-02-07 19:17:00,
2013-02-07 19:22:00,37.0,32.7,29.69,North,-999,-999.0,-999.0,84,-99.99,,,-99.99,meteohub,2013-02-07 19:22:00,
2013-02-07 19:27:00,37.0,32.9,29.69,North,-999,-999.0,-999.0,85,-99.99,,,-99.99,meteohub,2013-02-07 19:27:00,
2013-02-07 19:37:00,36.9,32.7,29.69,North,-999,-999.0,-999.0,85,-99.99,,,-99.99,meteohub,2013-02-07 19:37:00,
2013-02-07 19:42:00,36.7,32.5,29.69,North,-999,-999.0,-999.0,85,-99.99,,,-99.99,meteohub,2013-02-07 19:42:00,
2013-02-07 19:47:00,36.5,32.7,29.72,North,-999,-999.0,-999.0,86,-99.99,,,-99.99,meteohub,2013-02-07 19:47:00,
2013-02-07 19:52:00,36.1,32.4,29.72,North,-999,-999.0,-999.0,86,-99.99,,,-99.99,meteohub,2013-02-07 19:52:00,
2013-02-07 19:57:00,36.1,32.4,29.72,North,-999,-999.0,-999.0,86,-99.99,,,-99.99,meteohub,2013-02-07 19:57:00,
2013-02-07 20:02:00,35.8,32.5,29.72,North,-999,-999.0,-999.0,88,-99.99,,,-99.99,meteohub,2013-02-07 20:02:00,
2013-02-07 20:07:00,35.4,32.2,29.72,North,-999,-999.0,-999.0,88,-99.99,,,-99.99,meteohub,2013-02-07 20:07:00,
2013-02-07 20:12:00,35.4,32.2,29.72,North,-999,-999.0,-999.0,88,-99.99,,,-99.99,meteohub,2013-02-07 20:12:00,
2013-02-07 20:17:00,35.2,32.0,29.69,North,-999,-999.0,-999.0,88,-99.99,,,-99.99,meteohub,2013-02-07 20:17:00,
2013-02-07 20:22:00,35.1,31.8,29.69,North,-999,-999.0,-999.0,88,-99.99,,,-99.99,meteohub,2013-02-07 20:22:00,
2013-02-07 20:27:00,35.1,32.2,29.69,North,-999,-999.0,-999.0,89,-99.99,,,-99.99,meteohub,2013-02-07 20:27:00,
2013-02-07 20:32:00,35.1,32.2,29.72,North,-999,-999.0,-999.0,89,-99.99,,,-99.99,meteohub,2013-02-07 20:32:00,
2013-02-07 20:37:00,35.1,32.2,29.72,North,-999,-999.0,-999.0,89,-99.99,,,-99.99,meteohub,2013-02-07 20:37:00,
2013-02-07 20:42:00,35.1,32.2,29.72,North,-999,-999.0,-999.0,89,-99.99,,,-99.99,meteohub,2013-02-07 20:42:00,
2013-02-07 20:47:00,35.1,32.2,29.72,North,-999,-999.0,-999.0,89,-99.99,,,-99.99,meteohub,2013-02-07 20:47:00,
2013-02-07 20:52:00,35.1,32.2,29.72,North,-999,-999.0,-999.0,89,-99.99,,,-99.99,meteohub,2013-02-07 20:52:00,
2013-02-07 20:57:00,35.1,32.4,29.72,North,-999,-999.0,-999.0,90,-99.99,,,-99.99,meteohub,2013-02-07 20:57:00,
2013-02-07 21:02:00,35.1,32.4,29.72,North,-999,-999.0,-999.0,90,-99.99,,,-99.99,meteohub,2013-02-07 21:02:00,
2013-02-07 21:07:00,35.1,32.4,29.72,North,-999,-999.0,-999.0,90,-99.99,,,-99.99,meteohub,2013-02-07 21:07:00,
2013-02-07 21:12:00,35.2,32.5,29.72,North,-999,-999.0,-999.0,90,-99.99,,,-99.99,meteohub,2013-02-07 21:12:00,
2013-02-07 21:17:00,35.2,32.5,29.72,North,-999,-999.0,-999.0,90,-99.99,,,-99.99,meteohub,2013-02-07 21:17:00,
2013-02-07 21:22:00,35.2,32.5,29.72,North,-999,-999.0,-999.0,90,-99.99,,,-99.99,meteohub,2013-02-07 21:22:00,
2013-02-07 21:27:00,35.1,32.4,29.72,North,-999,-999.0,-999.0,90,-99.99,,,-99.99,meteohub,2013-02-07 21:27:00,
2013-02-07 21:32:00,34.9,32.2,29.72,North,-999,-999.0,-999.0,90,-99.99,,,-99.99,meteohub,2013-02-07 21:32:00,
2013-02-07 21:37:00,34.5,31.6,29.72,North,-999,-999.0,-999.0,89,-99.99,,,-99.99,meteohub,2013-02-07 21:37:00,
2013-02-07 21:47:00,34.2,31.3,29.72,North,-999,-999.0,-999.0,89,-99.99,,,-99.99,meteohub,2013-02-07 21:47:00,
2013-02-07 21:57:00,34.3,32.0,29.72,North,-999,-999.0,-999.0,91,-99.99,,,-99.99,meteohub,2013-02-07 21:57:00,
2013-02-07 22:02:00,34.3,32.0,29.72,North,-999,-999.0,-999.0,91,-99.99,,,-99.99,meteohub,2013-02-07 22:02:00,
2013-02-07 22:07:00,34.2,31.8,29.72,North,-999,-999.0,-999.0,91,-99.99,,,-99.99,meteohub,2013-02-07 22:07:00,
2013-02-07 22:12:00,34.0,31.6,29.72,North,-999,-999.0,-999.0,91,-99.99,,,-99.99,meteohub,2013-02-07 22:12:00,
2013-02-07 22:17:00,34.0,31.6,29.72,North,-999,-999.0,-999.0,91,-99.99,,,-99.99,meteohub,2013-02-07 22:17:00,
2013-02-07 22:22:00,33.8,31.5,29.72,North,-999,-999.0,-999.0,91,-99.99,,,-99.99,meteohub,2013-02-07 22:22:00,
2013-02-07 22:27:00,33.6,31.3,29.72,North,-999,-999.0,-999.0,91,-99.99,,,-99.99,meteohub,2013-02-07 22:27:00,
2013-02-07 22:32:00,33.6,31.6,29.72,North,-999,-999.0,-999.0,92,-99.99,,,-99.99,meteohub,2013-02-07 22:32:00,
2013-02-07 22:37:00,33.6,31.6,29.72,North,-999,-999.0,-999.0,92,-99.99,,,-99.99,meteohub,2013-02-07 22:37:00,
2013-02-07 22:42:00,33.4,31.5,29.72,North,-999,-999.0,-999.0,92,-99.99,,,-99.99,meteohub,2013-02-07 22:42:00,
2013-02-07 22:47:00,33.3,31.3,29.72,North,-999,-999.0,-999.0,92,-99.99,,,-99.99,meteohub,2013-02-07 22:47:00,
2013-02-07 22:52:00,33.1,31.1,29.72,North,-999,-999.0,-999.0,92,-99.99,,,-99.99,meteohub,2013-02-07 22:52:00,
2013-02-07 22:57:00,32.9,30.9,29.72,North,-999,-999.0,-999.0,92,-99.99,,,-99.99,meteohub,2013-02-07 22:57:00,
2013-02-07 23:02:00,32.7,30.7,29.72,North,-999,-999.0,-999.0,92,-99.99,,,-99.99,meteohub,2013-02-07 23:02:00,
2013-02-07 23:07:00,32.7,30.7,29.72,North,-999,-999.0,-999.0,92,-99.99,,,-99.99,meteohub,2013-02-07 23:07:00,
2013-02-07 23:12:00,32.7,30.7,29.72,North,-999,-999.0,-999.0,92,-99.99,,,-99.99,meteohub,2013-02-07 23:12:00,
2013-02-07 23:17:00,32.9,31.1,29.72,North,-999,-999.0,-999.0,93,-99.99,,,-99.99,meteohub,2013-02-07 23:17:00,
2013-02-07 23:22:00,33.1,31.5,29.72,North,-999,-999.0,-999.0,94,-99.99,,,-99.99,meteohub,2013-02-07 23:22:00,
2013-02-07 23:27:00,33.3,31.6,29.72,North,-999,-999.0,-999.0,94,-99.99,,,-99.99,meteohub,2013-02-07 23:27:00,
2013-02-07 23:32:00,33.4,32.2,29.72,North,-999,-999.0,-999.0,95,-99.99,,,-99.99,meteohub,2013-02-07 23:32:00,
2013-02-07 23:37:00,33.3,32.0,29.72,North,-999,-999.0,-999.0,95,-99.99,,,-99.99,meteohub,2013-02-07 23:37:00,
2013-02-07 23:42:00,33.3,31.6,29.72,North,-999,-999.0,-999.0,94,-99.99,,,-99.99,meteohub,2013-02-07 23:42:00,
2013-02-07 23:47:00,33.4,32.2,29.72,North,-999,-999.0,-999.0,95,-99.99,,,-99.99,meteohub,2013-02-07 23:47:00,
2013-02-07 23:52:00,33.6,32.5,29.72,North,-999,-999.0,-999.0,96,-99.99,,,-99.99,meteohub,2013-02-07 23:52:00,
2013-02-07 23:57:00,33.6,32.5,29.72,North,-999,-999.0,-999.0,96,-99.99,,,-99.99,meteohub,2013-02-07 23:57:00,